Terug naar catalogus

STARLINK-36591

ActiefCommunicatieSSO
NORAD 67576·PAYLOAD·🇺🇸 United States

Gelanceerd Jan 25, 2026 vanaf Vandenberg Space Force Base

Loading…

Volgende Passages (komende 24 uur)

TLE

VersSource: CelesTrak SupGP

Epoch: Sep 15, 2026, 02:50 UTC

1 67576C 26016R   26258.11854167  .00001072  00000+0  33258-4 0  2584
2 67576  97.2851 316.8766 0001206  86.6974  27.4207 15.33442047    17

Volg STARLINK-36591 in realtime met AllMySat

Download on the App Store